Location: Joffre
(52.3362°N, 113.5373°W)
Time: 12:02:12
(UTC+00:00)

Envisat - Pass Details

Date: 01 December 2021
Orbit: 764 x 766 km, 98.2° (Epoch: 23 January)

Event Time Altitude Azimuth Distance (km) Brightness Sun altitude
Rises 12:22:16 0° 17° (NNE) 3,248 6.4 -26.4°
Reaches altitude 10° 12:24:38 10° 22° (NNE) 2,317 5.7 -26.0°
Maximum altitude 12:29:39 54° 100° (E) 933 3.7 -25.2°
Drops below altitude 10° 12:34:36 10° 178° (S) 2,299 5.5 -24.5°
Sets 12:36:57 0° 182° (S) 3,220 6.3 -24.1°
